User: anonymous   Login
Location: Unspecified
(0.0000°N, 0.0000°E)
Time: 07:11:30
(UTC+00:00)
Language:

DMSP B5D2-4 - Orbit

View from above orbital plane
View from above orbital plane
View from above satellite
View from above satellite

Ground track
Ground track

The orbit data is extracted from the following two-line orbital elements,

1 18822U 88006A   18226.51106707  .00000011  00000-0  22204-4 0  9995
2 18822  98.5588 102.4138 0005550 212.0646 148.0198 14.27202641587696
Epoch (UTC): 14 August 2018 12:15:56
Eccentricity: 0.0005550
inclination: 98.5588°
perigee height: 797 km
apogee height: 805 km
right ascension of ascending node: 102.4138°
argument of perigee: 212.0646°
revolutions per day: 14.27202641
mean anomaly at epoch: 148.0198°
orbit number at epoch: 58769

The dashed part of the orbit path shows where the satellite is in the earth's shadow,  

DLR